Вернуться в каталог

STARLINK-36060

АктивенСвязьVLEO
NORAD 67090·PAYLOAD·🇺🇸 United States

Запущен Dec 14, 2025 с Vandenberg Space Force Base

Loading…

Ближайшие Пролёты (ближайшие 24 часа)

TLE

СвежийSource: CelesTrak SupGP

Эпоха: Sep 14, 2026, 21:21 UTC

1 67090C 25298R   26257.89006944  .00061181  00000+0  51262-2 0  2571
2 67090  69.9998 257.4126 0003633 267.6870 239.6885 14.98306045    14

Отслеживайте STARLINK-36060 в реальном времени с AllMySat

Download on the App Store